Regional Weather Roundup
Issued by NWS

Home | Current Version | Previous Version | Text Only | Print | Product List | Glossary On
Versions: 1 2 3 4 5 6 7 8 9 10 11 12 13 14 15 16 17 18 19 20 21 22 23 24 25 26 27 28 29 30 31 32 33 34 35 36 37 38 39 40 41 42 43 44 45 46 47 48 49 50
000
ASUS43 KMKX 181300
RWRWI

WISCONSIN REGIONAL WEATHER ROUNDUP
NATIONAL WEATHER SERVICE MILWAUKEE/SULLIVAN WI
800 AM CDT THU SEP 18 2014

NOTE: "FAIR" INDICATES FEW OR NO CLOUDS BELOW 12,000 FEET WITH NO
SIGNIFICANT WEATHER AND/OR OBSTRUCTIONS TO VISIBILITY.

WIZ001-002-006>008-014>016-023>028-181400-
NORTHWEST WISCONSIN

CITY           SKY/WX    TMP DP  RH WIND       PRES   REMARKS
SUPERIOR ARPT  CLOUDY    43  38  83 SE8       30.16S
ASHLAND        CLOUDY    42  37  82 NE6       30.17S
HAYWARD        CLOUDY    45  44  97 E3        30.14R
SIREN          CLOUDY    46  43  91 E5        30.12R
RICE LAKE      FOG       48  47  95 E6        30.13S VSB 3/4
LADYSMITH      CLOUDY    48  46  93 E5        30.15R
EAU CLAIRE     CLOUDY    47  45  93 E10       30.11R
MENOMONIE      CLOUDY    50  48  94 E9        30.11R FOG
NEW RICHMOND   FOG       49  49 100 E8        30.10R VSB 1/2
OSCEOLA        CLOUDY    48  48 100 E8        30.13R FOG
$$

WIZ003>005-009-010-017-018-181400-
NORTH CENTRAL WISCONSIN

CITY           SKY/WX    TMP DP  RH WIND       PRES   REMARKS
WOODRUFF       CLOUDY    43  40  90 SE5       30.15R
RHINELANDER    CLOUDY    39  38  96 E8        30.17R FOG     WCI  33
EAGLE RIVER    CLOUDY    37  36  96 SE6       30.16S WCI  33
LAND O LAKES   CLOUDY    38  36  93 SE6       30.17S WCI  33
PHILLIPS       CLOUDY    44  42  93 E7        30.14R
TOMAHAWK       CLOUDY    44  41  90 E3        30.16R
MEDFORD        CLOUDY    44  43  95 SE9       30.14R
MERRILL        CLOUDY    44  42  95 E5        30.16R
$$

WIZ029-030-035-036-043>047-181400-
CENTRAL WISCONSIN

CITY           SKY/WX    TMP DP  RH WIND       PRES   REMARKS
WAUSAU         CLOUDY    42  40  92 SE9       30.15S
MOSINEE        CLOUDY    43  43 100 E10       30.17R
MARSHFIELD     CLOUDY    45  43  93 SE10      30.15R
STEVENS POINT  CLOUDY    42  39  92 E9        30.17R
WAUPACA        CLOUDY    46  43  90 NE5       30.18R
WAUTOMA        NOT AVBL
WISC RAPIDS    CLOUDY    46  43  89 E8        30.17R
CAMP DOUGLAS   CLOUDY    48  48 100 E10       30.14R FOG
$$

WIZ011>013-019>022-031-037>040-048>050-181400-
NORTHEAST WISCONSIN

CITY           SKY/WX    TMP DP  RH WIND       PRES   REMARKS
ANTIGO         CLOUDY    38  37  96 E9        30.17S WCI  32
STURGEON BAY   CLOUDY    46  37  71 N9        30.18S
GREEN BAY      CLOUDY    45  38  76 N8        30.18S
MANITOWOC      NOT AVBL
APPLETON       CLOUDY    45  37  76 NE10      30.18R
CLINTONVILLE   CLOUDY    43  37  81 E9        30.19R
OSHKOSH        CLOUDY    48  44  86 NE7       30.17R
$$

WIZ032>034-041-042-053>061-181400-
SOUTHWEST WISCONSIN

CITY           SKY/WX    TMP DP  RH WIND       PRES   REMARKS
LA CROSSE      CLOUDY    51  49  92 E5        30.12R FOG
SPARTA         CLOUDY    50  49  97 SE6       30.14R FOG
VIROQUA        CLOUDY    47  47 100 E8        30.12R VSB<1/4
BOSCOBEL       CLOUDY    51  49  92 E6        30.14R FOG
PRAIRIE DU CHI FOG       49  47  96 CALM      30.11R VSB 1/2
PLATTEVILLE    FAIR      50  48  92 E13       30.12R
$$

WIZ056-057-062-063-064-067-068-181400-
SOUTH CENTRAL WISCONSIN

CITY           SKY/WX    TMP DP  RH WIND       PRES   REMARKS
BARABOO/DELLS  CLOUDY    49  48  95 E8        30.14R FOG
LONE ROCK      CLOUDY    55  52  88 E8        30.14R FOG
WATERTOWN      CLOUDY    49  49 100 E6        30.14R
MADISON        CLOUDY    50  48  93 E8        30.15R FOG
MIDDLETON      CLOUDY    52  52 100 E8        30.14R VSB 3/4
MONROE         FOG       46  46 100 NE9       30.12R VSB<1/4
JANESVILLE     FOG       52  48  87 E6        30.13R VSB 1
$$

WIZ051-052-058>065-066-070>072-181400-
SOUTHEAST WISCONSIN

CITY           SKY/WX    TMP DP  RH WIND       PRES   REMARKS
MILWAUKEE      CLOUDY    53  48  83 N10       30.14R
WAUKESHA       CLOUDY    48  46  93 NE12      30.15R
MILWAUKEE/TIMM CLOUDY    50  46  87 N7        30.15R
RACINE         CLOUDY    55  52  89 N12       30.14R
BURLINGTON     CLOUDY    51  50  99 NE6       30.13R
KENOSHA        PTSUNNY   54  53  97 N5        30.13R
FOND DU LAC    CLOUDY    47  43  86 E7        30.17R
SHEBOYGAN      CLOUDY    47  43  86 N12       30.16R
WEST BEND      CLOUDY    46  43  87 NE8       30.15R
JUNEAU         CLOUDY    47  45  95 E9        30.16R
$$

LSZ147-162-181400-
LAKE SUPERIOR

STATION/POSITION TIME  TEMP    WIND        PRES    WAVE
                       AIR SEA DIR/SP/G            HT/PER
                 (UTC) (F)     (DEG/KT/KT) (MB)    (FT/S)
W MID LAKE BUOY  1150   44 46  110/  6/  8 1022.8R   2/ 5
DEVILS ISLAND    1200   44     110/ 12/ 14 1022.6R
PORT WING        1200   43      60/  8/ 11 1021.7
SAXON HARBOR     1200   43      70/  4/  6 1021.7
$$

LMZ867-665-643>646-181400-
LAKE MICHIGAN

STATION/POSITION TIME  TEMP    WIND        PRES    WAVE
                       AIR SEA DIR/SP/G            HT/PER
                 (UTC) (F)     (DEG/KT/KT) (MB)    (FT/S)
N MID LAKE BUOY  1150   49 57   40/ 14/ 16 1021.9R   2/ 5
NORTHPORT PIER   1200   46      20/  9/ 12 1022.0S
SISTER BAY       1042          120/  4/  9   N/A
KEWAUNEE LAKESHO 1200   44     350/  5/  9 1020.6R
SHEBOYGAN LAKESH 1200   48 48  360/ 16/ 18 1021.4R
PORT WASHINGTON  1200   51     360/  7/ 11 1021.0R
ATWATER BUOY     1200   53     360/ 17/ 23 1020.7R
MILWAUKEE LAKESH 1200   52     350/ 13/ 17   N/A
S MID LAKE BUOY  1150   61 64  340/  6/  8 1018.9R   0
KENOSHA   LAKESH 1200   54     350/ 10/ 12 1019.3R
$$

TC  - TEMPERATURE IN CELSIUS
VSB - VISIBILITY IN STATUTE MILES
WCI - WIND CHILL INDEX
HX  - HEAT INDEX




USA.gov is the U.S. government's official web portal to all federal, state and local government web resources and services.